TimeEDT,TemperatureF,Dew PointF,Humidity,Sea Level PressureIn,VisibilityMPH,Wind Direction,Wind SpeedMPH,Gust SpeedMPH,PrecipitationIn,Events,Conditions,WindDirDegrees,DateUTC
12:15 AM,75.4,72.5,91,29.92,10.0,Calm,Calm,-,N/A,,Scattered Clouds,0,2013-09-01 04:15:00
12:35 AM,75.2,72.9,92,29.91,10.0,South,3.5,-,N/A,,Scattered Clouds,170,2013-09-01 04:35:00
12:55 AM,75.2,72.9,92,29.92,10.0,Calm,Calm,-,N/A,,Scattered Clouds,0,2013-09-01 04:55:00
1:15 AM,74.7,72.9,94,29.92,10.0,SSE,3.5,-,N/A,,Clear,160,2013-09-01 05:15:00
1:35 AM,74.5,72.9,95,29.92,10.0,South,4.6,-,N/A,,Clear,180,2013-09-01 05:35:00
1:55 AM,74.3,73.0,96,29.91,10.0,South,3.5,-,N/A,,Clear,190,2013-09-01 05:55:00
2:15 AM,74.3,73.4,97,29.91,10.0,South,3.5,-,N/A,,Clear,180,2013-09-01 06:15:00
2:35 AM,74.1,73.2,97,29.91,10.0,South,3.5,-,N/A,,Clear,190,2013-09-01 06:35:00
2:55 AM,73.9,73.4,98,29.90,10.0,Calm,Calm,-,N/A,,Clear,0,2013-09-01 06:55:00
3:15 AM,73.8,73.4,99,29.90,10.0,Calm,Calm,-,N/A,,Clear,0,2013-09-01 07:15:00
3:35 AM,73.4,72.9,98,29.89,7.0,Calm,Calm,-,N/A,,Clear,0,2013-09-01 07:35:00
3:55 AM,73.4,73.0,99,29.89,7.0,Calm,Calm,-,N/A,,Clear,0,2013-09-01 07:55:00
4:15 AM,73.4,73.0,99,29.88,7.0,Calm,Calm,-,N/A,,Clear,0,2013-09-01 08:15:00
4:35 AM,73.4,73.4,100,29.89,7.0,Calm,Calm,-,N/A,,Scattered Clouds,0,2013-09-01 08:35:00
4:55 AM,73.4,73.0,99,29.89,7.0,SSE,3.5,-,N/A,,Mostly Cloudy,160,2013-09-01 08:55:00
5:15 AM,73.4,73.0,99,29.89,5.0,Calm,Calm,-,N/A,,Overcast,0,2013-09-01 09:15:00
5:35 AM,73.0,72.9,99,29.89,7.0,South,3.5,-,N/A,,Overcast,180,2013-09-01 09:35:00
5:55 AM,73.0,72.9,99,29.89,5.0,South,3.5,-,N/A,,Overcast,170,2013-09-01 09:55:00
6:15 AM,73.2,73.0,99,29.89,5.0,South,3.5,-,N/A,,Overcast,190,2013-09-01 10:15:00
6:35 AM,73.0,72.9,99,29.90,5.0,SSW,3.5,-,N/A,,Overcast,210,2013-09-01 10:35:00
6:55 AM,73.0,72.9,99,29.91,4.0,South,4.6,-,N/A,,Scattered Clouds,180,2013-09-01 10:55:00
7:15 AM,73.4,73.4,100,29.91,4.0,Calm,Calm,-,N/A,,Scattered Clouds,0,2013-09-01 11:15:00
7:35 AM,73.6,73.4,99,29.91,4.0,Calm,Calm,-,N/A,,Clear,0,2013-09-01 11:35:00
7:55 AM,74.5,74.1,99,29.91,5.0,Calm,Calm,-,N/A,,Clear,0,2013-09-01 11:55:00
8:15 AM,75.2,74.5,98,29.92,5.0,South,4.6,-,N/A,,Scattered Clouds,190,2013-09-01 12:15:00
8:35 AM,76.1,74.8,96,29.92,7.0,SSW,3.5,-,N/A,,Overcast,210,2013-09-01 12:35:00
8:55 AM,77.2,74.8,92,29.93,7.0,SSW,5.8,-,N/A,,Overcast,200,2013-09-01 12:55:00
9:15 AM,78.8,74.8,88,29.92,10.0,SSW,5.8,-,N/A,,Mostly Cloudy,200,2013-09-01 13:15:00
9:35 AM,80.1,73.8,81,29.93,10.0,SW,9.2,-,N/A,,Scattered Clouds,220,2013-09-01 13:35:00
9:55 AM,81.0,72.9,76,29.93,10.0,SW,6.9,-,N/A,,Scattered Clouds,220,2013-09-01 13:55:00
10:15 AM,82.2,73.2,74,29.92,10.0,SSW,5.8,-,N/A,,Scattered Clouds,200,2013-09-01 14:15:00
10:35 AM,83.5,72.7,70,29.92,10.0,SW,8.1,-,N/A,,Scattered Clouds,230,2013-09-01 14:35:00
10:55 AM,84.4,72.9,68,29.93,10.0,SW,5.8,-,N/A,,Scattered Clouds,230,2013-09-01 14:55:00
11:15 AM,85.5,72.7,65,29.92,10.0,SW,3.5,-,N/A,,Clear,220,2013-09-01 15:15:00
11:35 AM,86.0,73.4,66,29.92,10.0,SSW,9.2,-,N/A,,Mostly Cloudy,210,2013-09-01 15:35:00
11:55 AM,87.6,72.7,61,29.92,10.0,SSW,6.9,-,N/A,,Mostly Cloudy,210,2013-09-01 15:55:00
12:15 PM,88.0,72.1,59,29.91,10.0,SW,6.9,-,N/A,,Scattered Clouds,230,2013-09-01 16:15:00
12:35 PM,88.2,71.1,57,29.90,10.0,SSW,10.4,-,N/A,,Mostly Cloudy,210,2013-09-01 16:35:00
12:55 PM,87.8,72.7,61,29.89,10.0,SW,5.8,-,N/A,Rain,Light Rain,220,2013-09-01 16:55:00
1:15 PM,88.0,72.1,59,29.88,10.0,SW,5.8,-,N/A,,Scattered Clouds,220,2013-09-01 17:15:00
1:35 PM,90.1,71.4,54,29.88,10.0,SSW,10.4,-,N/A,,Clear,210,2013-09-01 17:35:00
1:55 PM,90.7,71.1,52,29.87,10.0,SSW,9.2,-,N/A,,Scattered Clouds,210,2013-09-01 17:55:00
2:15 PM,92.5,69.3,46,29.87,10.0,SSW,12.7,17.3,N/A,,Scattered Clouds,210,2013-09-01 18:15:00
2:35 PM,91.6,69.1,48,29.85,10.0,SW,9.2,-,N/A,,Clear,230,2013-09-01 18:35:00
2:55 PM,92.3,69.3,47,29.84,10.0,South,11.5,-,N/A,,Scattered Clouds,190,2013-09-01 18:55:00
3:15 PM,91.9,70.7,50,29.83,10.0,SSE,10.4,-,N/A,,Mostly Cloudy,160,2013-09-01 19:15:00
3:35 PM,91.0,71.4,52,29.84,10.0,SSW,11.5,-,N/A,,Scattered Clouds,200,2013-09-01 19:35:00
3:55 PM,86.2,73.2,65,29.83,10.0,SSE,3.5,-,N/A,,Scattered Clouds,160,2013-09-01 19:55:00
4:15 PM,88.9,73.8,61,29.81,10.0,South,6.9,-,N/A,,Scattered Clouds,190,2013-09-01 20:15:00
4:35 PM,91.0,71.2,52,29.81,10.0,South,11.5,-,N/A,,Scattered Clouds,190,2013-09-01 20:35:00
4:55 PM,90.9,71.1,52,29.81,10.0,SSW,11.5,-,N/A,,Scattered Clouds,200,2013-09-01 20:55:00
5:15 PM,90.9,70.5,51,29.81,10.0,SSW,10.4,-,N/A,,Scattered Clouds,200,2013-09-01 21:15:00
5:35 PM,90.7,70.3,51,29.81,10.0,SSW,11.5,16.1,N/A,,Clear,200,2013-09-01 21:35:00
5:55 PM,90.0,71.1,54,29.81,10.0,South,9.2,-,N/A,,Scattered Clouds,190,2013-09-01 21:55:00
6:15 PM,89.6,71.8,56,29.80,10.0,SSW,9.2,-,N/A,,Scattered Clouds,200,2013-09-01 22:15:00
6:35 PM,88.5,70.9,56,29.82,10.0,SSW,6.9,-,N/A,,Clear,200,2013-09-01 22:35:00
6:55 PM,86.9,71.8,61,29.83,10.0,South,4.6,-,N/A,,Clear,190,2013-09-01 22:55:00
7:15 PM,85.5,72.9,66,29.83,10.0,South,4.6,-,N/A,,Scattered Clouds,180,2013-09-01 23:15:00
7:35 PM,84.0,64.6,52,29.84,10.0,SSW,13.8,28.8,N/A,,Scattered Clouds,200,2013-09-01 23:35:00
7:55 PM,81.7,66.0,59,29.84,10.0,SSW,4.6,9.2,N/A,,Clear,200,2013-09-01 23:55:00
8:15 PM,80.4,66.2,62,29.85,10.0,Calm,Calm,-,N/A,,Scattered Clouds,0,2013-09-02 00:15:00
8:35 PM,79.2,68.4,69,29.87,10.0,North,6.9,-,N/A,,Mostly Cloudy,350,2013-09-02 00:35:00
8:55 PM,77.2,68.9,76,29.86,10.0,NNE,5.8,-,N/A,,Overcast,20,2013-09-02 00:55:00
9:15 PM,76.8,69.3,77,29.90,10.0,NW,5.8,-,N/A,,Overcast,310,2013-09-02 01:15:00
9:35 PM,72.9,72.0,97,29.90,1.8,Calm,Calm,-,0.49,Rain,Heavy Rain,0,2013-09-02 01:35:00
9:55 PM,72.7,72.0,98,29.89,7.0,Calm,Calm,-,0.53,Rain,Light Rain,0,2013-09-02 01:55:00
10:15 PM,72.5,72.1,99,29.88,7.0,Calm,Calm,-,0.02,Rain,Light Rain,0,2013-09-02 02:15:00
10:35 PM,72.5,72.3,99,29.87,10.0,Calm,Calm,-,0.03,Rain,Light Rain,0,2013-09-02 02:35:00
10:55 PM,73.0,72.7,99,29.89,7.0,South,3.5,-,0.03,,Clear,180,2013-09-02 02:55:00
11:15 PM,72.5,72.1,99,29.89,7.0,SSE,4.6,-,N/A,,Scattered Clouds,150,2013-09-02 03:15:00
11:35 PM,72.5,72.5,100,29.89,7.0,SSE,4.6,-,N/A,,Overcast,150,2013-09-02 03:35:00
11:55 PM,72.7,72.5,99,29.89,7.0,South,4.6,-,N/A,,Mostly Cloudy,180,2013-09-02 03:55:00